Погода в Новомарьевской

Россия / Ставропольский край     45°08′11″N   41°48′30″E
темп.,
°C
ветер,
м/с
пор.,
м/с
влажн.,
%
обл.,
%
осадки,
мм/ч
давл.,
гПа
погр.,
м
6 мая, чт
чт600:00+9вюв34720 0.0 101654
03:00+8вюв413670 0.0 1015250
06:00+9вюв716670 0.0 1015438
09:00+14юв8135675 0.0 1014762
12:00+18юв78495 0.0 10131109
15:00+19юв664866 0.0 10121228
18:00+17юв476589 0.0 1013193
21:00+13юв51163100 0.0 1013233
7 мая, пт
пт700:00+12юв4866100 0.0 1013140
03:00+11ююв2269100 0.0 101427
06:00+11ююз247599 0.0 1016109
09:00+16зюз457455 0.0 1016524
12:00+19з56535 0.0 10171206
15:00+19з45484 0.0 10171423
18:00+18з34650 0.0 1017145
21:00+13ю11715 0.0 101911
8 мая, сб
сб800:00+12юв2271100 0.0 101810
03:00+11юв32705 0.0 101720
06:00+12юв33735 0.0 101754
09:00+19юв465914 0.0 1016630
12:00+22юв5550100 0.0 10141228
15:00+22юв5549100 0.0 10131379
18:00+20юв486797 0.0 1012239
21:00+15юв49725 0.0 1012148
9 мая, вс
вс900:00+14юв4106867 0.0 1010154
03:00+13юв467188 0.0 100887
06:00+14юв3578100 0.0 100686
09:00+17з71180100 0.0 1008839
12:00+14зюз5988100 1.4 1011632
15:00+8з122095100 1.8 1015845
18:00+5зсз121995100 0.1 10191025
21:00+6зсз101586100 0.1 1022939
10 мая, пн
пн1000:00+5з714905 0.0 1023553
03:00+5зюз715885 0.0 1023546
06:00+5зюз714855 0.0 1023532
09:00+10з811655 0.1 10221414
12:00+12з101259100 0.8 10201959
15:00+11зсз101362100 1.6 10201740
18:00+9з8127664 0.6 10201254
21:00+6зюз41380100 0.6 1020705